TimeEST,TemperatureF,Dew PointF,Humidity,Sea Level PressureIn,VisibilityMPH,Wind Direction,Wind SpeedMPH,Gust SpeedMPH,PrecipitationIn,Events,Conditions,WindDirDegrees,DateUTC
12:15 AM,39.2,37.4,93,29.81,4.0,North,11.5,18.4,N/A,Rain,Rain,10,2013-01-13 05:15:00
12:34 AM,39.2,37.4,93,29.79,5.0,North,12.7,18.4,N/A,Rain,Light Rain,10,2013-01-13 05:34:00
12:55 AM,37.4,35.6,93,29.80,5.0,North,11.5,19.6,N/A,Rain,Light Rain,10,2013-01-13 05:55:00
1:15 AM,37.4,35.6,93,29.80,4.0,North,11.5,-,N/A,Rain,Rain,10,2013-01-13 06:15:00
1:35 AM,37.4,35.6,93,29.80,5.0,North,10.4,19.6,N/A,Rain,Light Rain,360,2013-01-13 06:35:00
1:55 AM,37.4,35.6,93,29.80,4.0,North,10.4,-,N/A,Rain,Rain,10,2013-01-13 06:55:00
2:15 AM,37.4,35.6,93,29.80,4.0,NNE,12.7,20.7,N/A,Rain,Rain,20,2013-01-13 07:15:00
2:35 AM,37.4,35.6,93,29.80,3.0,NNE,8.1,16.1,N/A,Rain,Rain,30,2013-01-13 07:35:00
2:55 AM,35.6,35.6,100,29.80,2.5,NNE,8.1,-,N/A,Rain,Rain,20,2013-01-13 07:55:00
3:14 AM,35.6,35.6,100,29.83,3.0,NNW,13.8,17.3,N/A,Rain,Rain,330,2013-01-13 08:14:00
3:35 AM,35.6,35.6,100,29.81,7.0,North,11.5,-,N/A,Rain,Light Rain,10,2013-01-13 08:35:00
3:55 AM,35.6,35.6,100,29.82,5.0,NNW,11.5,18.4,N/A,Rain,Light Rain,340,2013-01-13 08:55:00
4:15 AM,35.6,35.6,100,29.78,7.0,NNE,12.7,17.3,N/A,Rain,Light Rain,20,2013-01-13 09:15:00
4:35 AM,35.6,33.8,93,29.83,10.0,North,10.4,-,N/A,,Overcast,350,2013-01-13 09:35:00
4:54 AM,35.6,33.8,93,29.81,7.0,North,8.1,-,N/A,,Drizzle,360,2013-01-13 09:54:00
5:15 AM,35.6,33.8,93,29.81,5.0,North,8.1,-,N/A,,Overcast,360,2013-01-13 10:15:00
5:35 AM,35.6,33.8,93,29.80,5.0,North,6.9,-,N/A,,Overcast,360,2013-01-13 10:35:00
5:54 AM,35.6,33.8,93,29.78,5.0,NE,5.8,-,N/A,,Overcast,50,2013-01-13 10:54:00
6:15 AM,35.6,33.8,93,29.82,5.0,North,6.9,-,N/A,,Overcast,350,2013-01-13 11:15:00
6:35 AM,35.6,33.8,93,29.83,4.0,North,5.8,-,N/A,Rain,Light Rain,350,2013-01-13 11:35:00
6:54 AM,35.6,33.8,93,29.81,4.0,NNE,4.6,-,N/A,,Light Drizzle,30,2013-01-13 11:54:00
7:15 AM,35.6,35.6,100,29.84,4.0,Calm,Calm,-,N/A,,Overcast,0,2013-01-13 12:15:00
7:35 AM,35.6,35.6,100,29.85,2.5,Calm,Calm,-,N/A,,Overcast,0,2013-01-13 12:35:00
7:54 AM,35.6,35.6,100,29.86,2.5,Calm,Calm,-,N/A,Rain,Light Rain,0,2013-01-13 12:54:00
8:15 AM,35.6,35.6,100,29.87,2.0,West,4.6,-,N/A,,Overcast,270,2013-01-13 13:15:00
8:35 AM,35.6,35.6,100,29.88,2.0,Calm,Calm,-,N/A,,Overcast,0,2013-01-13 13:35:00
8:54 AM,35.6,35.6,100,29.88,2.5,WNW,4.6,-,N/A,Snow,Light Snow,300,2013-01-13 13:54:00
9:15 AM,35.6,35.6,100,29.89,2.5,West,5.8,-,N/A,,Overcast,280,2013-01-13 14:15:00
9:35 AM,35.6,35.6,100,29.90,2.5,WNW,5.8,-,N/A,,Overcast,290,2013-01-13 14:35:00
10:15 AM,35.6,35.6,100,29.90,1.5,WNW,3.5,-,N/A,,Overcast,290,2013-01-13 15:15:00
10:34 AM,35.6,35.6,100,29.92,1.8,WNW,5.8,-,N/A,,Overcast,290,2013-01-13 15:34:00
10:55 AM,35.6,35.6,100,29.91,1.8,NW,4.6,-,N/A,,Overcast,310,2013-01-13 15:55:00
11:14 AM,35.6,35.6,100,29.92,1.8,WNW,6.9,-,N/A,,Overcast,300,2013-01-13 16:14:00
11:35 AM,35.6,35.6,100,29.89,2.0,NW,5.8,-,N/A,,Overcast,320,2013-01-13 16:35:00
11:55 AM,35.6,33.8,93,29.92,2.5,NW,9.2,-,N/A,,Overcast,310,2013-01-13 16:55:00
12:14 PM,35.6,33.8,93,29.92,3.0,WNW,9.2,16.1,N/A,,Overcast,300,2013-01-13 17:14:00
12:35 PM,35.6,33.8,93,29.90,1.5,NNW,4.6,-,N/A,,Overcast,330,2013-01-13 17:35:00
12:55 PM,35.6,35.6,100,29.88,1.8,NNW,6.9,-,N/A,,Overcast,340,2013-01-13 17:55:00
1:14 PM,35.6,35.6,100,29.86,3.0,North,3.5,-,N/A,,Overcast,350,2013-01-13 18:14:00
1:54 PM,33.8,33.8,100,29.84,4.0,NNW,10.4,-,N/A,,Overcast,330,2013-01-13 18:54:00
2:15 PM,33.8,33.8,100,29.88,10.0,NW,10.4,17.3,N/A,,Overcast,320,2013-01-13 19:15:00
2:35 PM,33.8,32.0,93,29.90,4.0,NW,12.7,-,N/A,,Overcast,320,2013-01-13 19:35:00
2:54 PM,32.0,30.2,93,29.92,1.5,NW,11.5,18.4,N/A,,Overcast,320,2013-01-13 19:54:00
3:15 PM,32.0,30.2,93,29.92,2.0,NNW,8.1,-,N/A,Snow,Light Snow,330,2013-01-13 20:15:00
3:35 PM,32.0,30.2,93,29.92,2.5,NNW,10.4,-,N/A,,Overcast,340,2013-01-13 20:35:00
3:54 PM,32.0,30.2,93,29.92,4.0,NNW,5.8,-,N/A,Snow,Light Snow,340,2013-01-13 20:54:00
4:15 PM,32.0,30.2,93,29.94,4.0,Calm,Calm,-,N/A,,Overcast,0,2013-01-13 21:15:00
4:35 PM,32.0,30.2,93,29.93,3.0,NNW,3.5,-,N/A,,Overcast,330,2013-01-13 21:35:00
4:54 PM,32.0,30.2,93,29.94,5.0,Calm,Calm,-,N/A,,Overcast,0,2013-01-13 21:54:00
5:15 PM,32.0,30.2,93,29.95,4.0,Calm,Calm,-,N/A,Snow,Light Snow,0,2013-01-13 22:15:00
5:35 PM,32.0,30.2,93,29.92,2.5,WNW,3.5,-,N/A,Snow,Light Snow,300,2013-01-13 22:35:00
5:54 PM,30.2,30.2,100,29.94,2.5,WNW,4.6,-,N/A,Snow,Light Snow,300,2013-01-13 22:54:00
6:15 PM,30.2,30.2,100,29.96,2.0,West,5.8,-,N/A,Snow,Light Snow,280,2013-01-13 23:15:00
6:35 PM,30.2,30.2,100,29.97,2.0,West,4.6,-,N/A,Snow,Light Snow,280,2013-01-13 23:35:00
6:54 PM,30.2,30.2,100,29.99,4.0,West,9.2,-,N/A,Snow,Light Snow,270,2013-01-13 23:54:00
7:15 PM,30.2,28.4,93,29.99,10.0,West,9.2,-,N/A,,Overcast,280,2013-01-14 00:15:00
7:35 PM,30.2,28.4,93,29.99,10.0,WNW,9.2,-,N/A,,Overcast,300,2013-01-14 00:35:00
7:55 PM,28.4,28.4,100,30.01,10.0,WNW,10.4,-,N/A,,Overcast,290,2013-01-14 00:55:00
8:15 PM,28.4,26.6,93,30.01,10.0,WNW,11.5,-,N/A,,Overcast,300,2013-01-14 01:15:00
8:34 PM,28.4,26.6,93,30.02,10.0,WNW,10.4,18.4,N/A,,Overcast,290,2013-01-14 01:34:00
8:55 PM,28.4,26.6,93,30.03,7.0,WNW,8.1,-,N/A,,Overcast,290,2013-01-14 01:55:00
9:15 PM,28.4,26.6,93,30.03,7.0,WNW,9.2,18.4,N/A,,Overcast,300,2013-01-14 02:15:00
9:34 PM,28.4,26.6,93,30.04,7.0,West,11.5,19.6,N/A,,Overcast,280,2013-01-14 02:34:00
9:55 PM,26.6,24.8,93,30.05,10.0,West,11.5,17.3,N/A,,Overcast,280,2013-01-14 02:55:00
10:14 PM,26.6,24.8,93,30.05,10.0,West,9.2,16.1,N/A,,Overcast,270,2013-01-14 03:14:00
10:35 PM,26.6,23.0,86,30.07,10.0,West,12.7,19.6,N/A,,Overcast,270,2013-01-14 03:35:00
10:55 PM,24.8,21.2,86,30.08,10.0,West,15.0,19.6,N/A,,Overcast,270,2013-01-14 03:55:00
11:14 PM,24.8,21.2,86,30.09,10.0,West,10.4,16.1,N/A,,Overcast,280,2013-01-14 04:14:00
11:35 PM,24.8,21.2,86,30.10,10.0,WNW,11.5,18.4,N/A,,Overcast,300,2013-01-14 04:35:00
11:55 PM,23.0,19.4,86,30.11,10.0,WNW,10.4,19.6,N/A,,Overcast,290,2013-01-14 04:55:00